Simultaneous Nadir Overpasses (SNOs) Predictions

Prediction of SNOs between NOAA-19 and TERRA Satellite Orbit:

Table of predicted SNOs for the next 14.0 days since TLE Epoch: 11/22/2014
Index Date (NOAA-19) Time (NOAA-19) Lat,Lon (NOAA-19) SZA (NOAA-19 ) Date (TERRA) Time (TERRA) Lat,Lon (TERRA) SZA (TERRA ) Distance(km) Time Diff (sec)
1 11/22/2014 19:36:35 71.19,-111.78 91.42 11/22/2014 19:37:16 71.22,-111.79 91.45 3.12 41
2 11/22/2014 20:27:37 -71.09, 55.63 88.68 11/22/2014 20:26:46 -71.11, 55.66 88.67 2.00 51
3 11/25/2014 00:20:21 71.56, 176.67 92.21 11/25/2014 00:21:32 71.41, 177.43 92.09 32.01 71
4 11/25/2014 01:11:17 -71.13, -15.32 88.20 11/25/2014 01:11:05 -71.13, -15.38 88.20 2.14 12
5 11/27/2014 05:54:57 -71.18, -86.29 87.73 11/27/2014 05:55:23 -71.19, -86.37 87.73 2.80 26
6 11/27/2014 06:45:54 71.11, 81.09 92.21 11/27/2014 06:44:50 71.09, 81.11 92.18 2.91 64
7 11/29/2014 10:38:37 -71.25,-157.29 87.29 11/29/2014 10:39:40 -71.27,-157.31 87.26 2.43 63
8 11/29/2014 11:29:33 71.15, 10.15 92.62 11/29/2014 11:29:07 71.16, 10.16 92.64 2.16 26
9 12/01/2014 16:13:12 71.19, -60.82 93.02 12/01/2014 16:13:24 71.22, -60.83 93.04 2.63 12
10 12/01/2014 17:04:10 -70.81, 107.08 87.35 12/01/2014 17:02:58 -70.90, 106.30 87.29 30.22 72
11 12/03/2014 20:56:51 71.25,-131.80 93.39 12/03/2014 20:57:41 71.24,-131.86 93.38 2.36 50
12 12/03/2014 21:47:55 -71.16, 35.59 86.70 12/03/2014 21:47:11 -71.14, 35.61 86.73 2.74 44
13 12/06/2014 01:40:40 71.84, 156.24 94.23 12/06/2014 01:41:49 71.73, 157.87 94.17 58.16 69
14 12/06/2014 02:31:33 -71.17, -35.31 86.41 12/06/2014 02:31:27 -71.19, -35.37 86.39 3.13 6




NCC Satellite Simultaneous Nadir Overpasses (SNOs) Prediction Service
